Location: Highridge
(54.0333°N, 114.1333°W)
Time: 14:34:17
(UTC+00:00)

Envisat - Visible Passes

Search period start: 09 June 2023 00:00
Search period end: 19 June 2023 00:00
Orbit: 763 x 765 km, 98.2° (Epoch: 08 June)

Date Brightness Start Highest point End Pass type
(mag) Time Alt. Az. Time Alt. Az. Time Alt. Az.
10 Jun 5.9 09:49:03 10° ENE 09:50:00 10° E 09:50:56 10° E visible
12 Jun 5.5 10:11:52 10° NE 10:15:08 17° E 10:18:21 10° SE visible
15 Jun 5.6 10:00:01 10° NE 10:02:29 13° E 10:04:58 10° ESE visible
18 Jun 5.9 09:48:44 10° ENE 09:49:50 11° E 09:50:55 10° E visible
